Time,TemperatureF,DewpointF,PressureIn,WindDirection,WindDirectionDegrees,WindSpeedMPH,WindSpeedGustMPH,Humidity,HourlyPrecipIn,Conditions,Clouds,dailyrainin,SoftwareType,DateUTC
2013-01-01 00:03:00,51.1,45.8,30.11,South,180,0.0,0.0,82,0.00,,OVC,0.00,WUHU21623XXSP,2012-12-31 22:03:00,
2013-01-01 00:08:00,50.9,45.6,30.11,SW,225,0.0,0.0,82,0.00,,OVC,0.00,WUHU21623XXSP,2012-12-31 22:08:00,
2013-01-01 00:13:00,50.9,45.6,30.11,WNW,292,0.0,0.0,82,0.00,,OVC,0.00,WUHU21623XXSP,2012-12-31 22:13:00,
2013-01-01 00:18:00,50.9,45.6,30.11,WNW,292,0.0,0.0,82,0.00,,OVC,0.00,WUHU21623XXSP,2012-12-31 22:18:00,
2013-01-01 00:23:00,50.9,45.6,30.11,SSE,157,0.0,0.0,82,0.00,,OVC,0.00,WUHU21623XXSP,2012-12-31 22:23:00,
2013-01-01 00:28:00,50.9,45.6,30.11,SE,135,0.0,0.0,82,0.00,,OVC,0.00,WUHU21623XXSP,2012-12-31 22:28:00,
2013-01-01 00:33:00,50.9,45.6,30.11,ESE,112,0.0,0.0,82,0.00,,OVC,0.00,WUHU21623XXSP,2012-12-31 22:33:00,
2013-01-01 00:38:00,50.9,45.6,30.11,ESE,112,0.0,0.0,82,0.00,,OVC,0.00,WUHU21623XXSP,2012-12-31 22:38:00,
2013-01-01 00:43:00,50.9,45.6,30.10,ESE,112,0.0,0.0,82,0.00,,OVC,0.00,WUHU21623XXSP,2012-12-31 22:43:00,
2013-01-01 00:48:00,50.9,45.6,30.10,SSW,202,0.0,0.0,82,0.00,,OVC,0.00,WUHU21623XXSP,2012-12-31 22:48:00,
2013-01-01 00:53:00,50.9,45.6,30.11,SE,135,0.0,0.0,82,0.00,,OVC,0.00,WUHU21623XXSP,2012-12-31 22:53:00,
2013-01-01 00:58:00,50.9,45.6,30.10,SE,135,0.0,0.0,82,0.00,,OVC,0.00,WUHU21623XXSP,2012-12-31 22:58:00,
2013-01-01 01:03:00,50.7,45.4,30.10,ENE,67,0.0,0.0,82,0.00,,OVC,0.00,WUHU21623XXSP,2012-12-31 23:03:00,
2013-01-01 01:08:00,50.9,45.6,30.10,North,0,0.0,0.0,82,0.00,,OVC,0.00,WUHU21623XXSP,2012-12-31 23:08:00,
2013-01-01 01:13:00,50.9,45.6,30.10,NNE,22,0.0,0.0,82,0.00,,OVC,0.00,WUHU21623XXSP,2012-12-31 23:13:00,
2013-01-01 01:28:00,51.3,46.0,30.09,NE,45,0.0,0.0,82,0.00,,FEW,0.00,WUHU21623XXSP,2012-12-31 23:28:00,
2013-01-01 02:28:00,50.9,45.9,30.10,SSW,203,0.0,0.0,83,0.00,,FEW,0.00,WUHU21623XXSP,2013-01-01 00:28:00,
2013-01-01 03:28:00,50.9,45.6,30.09,SSE,158,0.0,0.0,82,0.00,,FEW,0.00,WUHU21623XXSP,2013-01-01 01:28:00,
2013-01-01 04:28:00,49.1,44.2,30.08,SSW,203,0.0,0.0,83,0.00,,FEW,0.00,WUHU21623XXSP,2013-01-01 02:28:00,
2013-01-01 05:28:00,48.4,44.7,30.07,SE,135,0.0,0.0,87,0.00,,FEW,0.00,WUHU21623XXSP,2013-01-01 03:28:00,
2013-01-01 06:28:00,48.2,45.1,30.08,NE,45,0.0,0.0,89,0.00,,FEW,0.00,WUHU21623XXSP,2013-01-01 04:28:00,
2013-01-01 07:28:00,46.4,44.2,30.09,NNW,338,0.0,0.0,92,0.00,,FEW,0.00,WUHU21623XXSP,2013-01-01 05:28:00,
2013-01-01 08:28:00,45.7,44.3,30.10,ESE,113,0.0,0.0,95,0.00,,FEW,0.00,WUHU21623XXSP,2013-01-01 06:28:00,
2013-01-01 09:28:00,51.1,49.7,30.11,SSE,158,0.0,0.0,95,0.00,,FEW,0.00,WUHU21623XXSP,2013-01-01 07:28:00,
2013-01-01 10:34:00,55.6,44.1,30.10,SSE,157,0.0,0.0,65,0.00,,FEW,0.00,WUHU21623XXSP,2013-01-01 08:34:00,
2013-01-01 10:39:00,55.9,45.6,30.10,South,180,3.2,3.2,68,0.00,,FEW,0.00,WUHU21623XXSP,2013-01-01 08:39:00,
2013-01-01 10:44:00,56.1,45.0,30.11,NW,315,0.0,3.2,66,0.00,,FEW,0.00,WUHU21623XXSP,2013-01-01 08:44:00,
2013-01-01 10:49:00,56.7,45.2,30.11,WSW,247,0.0,1.8,65,0.00,,FEW,0.00,WUHU21623XXSP,2013-01-01 08:49:00,
2013-01-01 10:54:00,57.4,46.3,30.11,South,180,4.9,4.9,66,0.00,,FEW,0.00,WUHU21623XXSP,2013-01-01 08:54:00,
2013-01-01 10:59:00,57.4,45.5,30.11,South,180,0.0,6.9,64,0.00,,FEW,0.00,WUHU21623XXSP,2013-01-01 08:59:00,
2013-01-01 11:04:00,56.7,44.8,30.11,WSW,247,0.0,6.9,64,0.00,,FEW,0.00,WUHU21623XXSP,2013-01-01 09:04:00,
2013-01-01 11:09:00,56.3,44.8,30.11,NNW,337,0.0,6.6,65,0.00,,SCT,0.00,WUHU21623XXSP,2013-01-01 09:09:00,
2013-01-01 11:14:00,56.3,45.2,30.10,NW,315,0.0,2.2,66,0.00,,SCT,0.00,WUHU21623XXSP,2013-01-01 09:14:00,
2013-01-01 11:19:00,56.3,45.2,30.11,NNW,337,1.2,2.2,66,0.00,,SCT,0.00,WUHU21623XXSP,2013-01-01 09:19:00,
2013-01-01 11:24:00,55.9,45.2,30.10,WNW,292,2.0,3.2,67,0.00,,SCT,0.00,WUHU21623XXSP,2013-01-01 09:24:00,
2013-01-01 11:29:00,55.6,45.3,30.11,NW,315,5.2,5.4,68,0.00,,SCT,0.00,WUHU21623XXSP,2013-01-01 09:29:00,
2013-01-01 11:34:00,55.2,45.3,30.10,WNW,292,0.0,7.4,69,0.00,,SCT,0.00,WUHU21623XXSP,2013-01-01 09:34:00,
2013-01-01 11:39:00,55.0,45.5,30.10,NW,315,0.0,7.4,70,0.00,,SCT,0.00,WUHU21623XXSP,2013-01-01 09:39:00,
2013-01-01 11:44:00,55.0,45.5,30.10,NW,315,0.0,2.8,70,0.00,,SCT,0.00,WUHU21623XXSP,2013-01-01 09:44:00,
2013-01-01 11:49:00,55.0,45.5,30.10,SW,225,0.0,3.4,70,0.00,,SCT,0.00,WUHU21623XXSP,2013-01-01 09:49:00,
2013-01-01 11:54:00,55.0,45.5,30.10,NW,315,0.0,3.4,70,0.00,,SCT,0.00,WUHU21623XXSP,2013-01-01 09:54:00,
2013-01-01 11:59:00,55.2,45.7,30.09,West,270,0.0,3.0,70,0.00,,SCT,0.00,WUHU21623XXSP,2013-01-01 09:59:00,
2013-01-01 12:04:00,55.2,45.3,30.10,West,270,0.0,2.0,69,0.00,,SCT,0.00,WUHU21623XXSP,2013-01-01 10:04:00,
2013-01-01 12:09:00,55.4,45.9,30.09,NW,315,0.0,2.4,70,0.00,,SCT,0.00,WUHU21623XXSP,2013-01-01 10:09:00,
2013-01-01 12:14:00,55.8,45.9,30.09,WNW,292,0.0,5.2,69,0.00,,SCT,0.00,WUHU21623XXSP,2013-01-01 10:14:00,
2013-01-01 12:19:00,56.1,45.4,30.09,WNW,292,0.0,5.2,67,0.00,,SCT,0.00,WUHU21623XXSP,2013-01-01 10:19:00,
2013-01-01 12:24:00,56.3,46.0,30.09,NW,315,0.0,4.0,68,0.00,,SCT,0.00,WUHU21623XXSP,2013-01-01 10:24:00,
2013-01-01 12:29:00,56.5,45.4,30.09,SSW,202,0.0,2.2,66,0.00,,SCT,0.00,WUHU21623XXSP,2013-01-01 10:29:00,
2013-01-01 12:34:00,56.3,45.2,30.09,West,270,0.0,2.2,66,0.00,,SCT,0.00,WUHU21623XXSP,2013-01-01 10:34:00,
2013-01-01 12:39:00,56.7,45.2,30.09,WNW,292,0.0,3.7,65,0.00,,SCT,0.00,WUHU21623XXSP,2013-01-01 10:39:00,
2013-01-01 12:44:00,56.8,45.3,30.09,SW,225,3.2,4.0,65,0.00,,SCT,0.00,WUHU21623XXSP,2013-01-01 10:44:00,
2013-01-01 12:49:00,57.0,44.7,30.09,SW,225,3.4,5.2,63,0.00,,SCT,0.00,WUHU21623XXSP,2013-01-01 10:49:00,
2013-01-01 12:54:00,57.4,45.0,30.08,West,270,2.8,6.4,63,0.00,,SCT,0.00,WUHU21623XXSP,2013-01-01 10:54:00,
2013-01-01 12:59:00,57.4,45.0,30.08,WNW,292,0.0,6.4,63,0.00,,SCT,0.00,WUHU21623XXSP,2013-01-01 10:59:00,
2013-01-01 13:04:00,57.0,44.2,30.08,WNW,292,0.0,3.2,62,0.00,,SCT,0.00,WUHU21623XXSP,2013-01-01 11:04:00,
2013-01-01 13:09:00,57.0,44.7,30.08,SSW,202,1.2,4.9,63,0.00,,SCT,0.00,WUHU21623XXSP,2013-01-01 11:09:00,
2013-01-01 13:14:00,57.0,44.7,30.08,South,180,0.0,5.2,63,0.00,,SCT,0.00,WUHU21623XXSP,2013-01-01 11:14:00,
2013-01-01 13:19:00,56.8,44.5,30.08,SW,225,0.0,5.2,63,0.00,,SCT,0.00,WUHU21623XXSP,2013-01-01 11:19:00,
2013-01-01 13:24:00,57.2,44.8,30.08,SSE,157,0.0,4.0,63,0.00,,SCT,0.00,WUHU21623XXSP,2013-01-01 11:24:00,
2013-01-01 13:29:00,57.4,45.0,30.08,SSW,202,1.2,4.0,63,0.00,,SCT,0.00,WUHU21623XXSP,2013-01-01 11:29:00,
2013-01-01 13:34:00,57.0,44.7,30.07,SSE,157,1.8,4.2,63,0.00,,SCT,0.00,WUHU21623XXSP,2013-01-01 11:34:00,
2013-01-01 13:39:00,56.7,43.9,30.07,ENE,67,0.0,4.9,62,0.00,,SCT,0.00,WUHU21623XXSP,2013-01-01 11:39:00,
2013-01-01 13:44:00,56.8,44.5,30.07,South,180,0.0,4.9,63,0.00,,SCT,0.00,WUHU21623XXSP,2013-01-01 11:44:00,
2013-01-01 13:49:00,57.4,44.6,30.07,ESE,112,0.0,7.6,62,0.00,,SCT,0.00,WUHU21623XXSP,2013-01-01 11:49:00,
2013-01-01 13:54:00,57.4,44.6,30.07,ESE,112,3.2,7.6,62,0.00,,SCT,0.00,WUHU21623XXSP,2013-01-01 11:54:00,
2013-01-01 13:59:00,57.6,44.4,30.07,South,180,0.0,5.4,61,0.00,,SCT,0.00,WUHU21623XXSP,2013-01-01 11:59:00,
2013-01-01 14:04:00,57.4,44.6,30.07,SSW,202,2.8,4.9,62,0.00,,SCT,0.00,WUHU21623XXSP,2013-01-01 12:04:00,
2013-01-01 14:09:00,57.4,44.6,30.07,SSW,202,0.0,3.4,62,0.00,,SCT,0.00,WUHU21623XXSP,2013-01-01 12:09:00,
2013-01-01 14:14:00,57.4,44.6,30.07,West,270,0.0,3.4,62,0.00,,SCT,0.00,WUHU21623XXSP,2013-01-01 12:14:00,
2013-01-01 14:19:00,57.4,44.2,30.07,WSW,247,0.0,2.4,61,0.00,,SCT,0.00,WUHU21623XXSP,2013-01-01 12:19:00,
2013-01-01 14:24:00,57.2,44.4,30.07,SW,225,0.0,2.4,62,0.00,,SCT,0.00,WUHU21623XXSP,2013-01-01 12:24:00,
2013-01-01 14:29:00,57.2,44.4,30.07,SSW,202,2.4,3.2,62,0.00,,SCT,0.00,WUHU21623XXSP,2013-01-01 12:29:00,
2013-01-01 14:34:00,57.4,45.0,30.08,SE,135,0.0,3.2,63,0.00,,SCT,0.00,WUHU21623XXSP,2013-01-01 12:34:00,
2013-01-01 14:39:00,57.4,44.2,30.07,SSE,157,4.9,5.4,61,0.00,,SCT,0.00,WUHU21623XXSP,2013-01-01 12:39:00,
2013-01-01 14:44:00,57.4,43.7,30.08,ENE,67,0.0,5.4,60,0.00,,SCT,0.00,WUHU21623XXSP,2013-01-01 12:44:00,
2013-01-01 14:50:00,57.4,43.7,30.08,NNE,22,0.0,4.2,60,0.00,,SCT,0.00,WUHU21623XXSP,2013-01-01 12:50:00,
2013-01-01 14:55:00,57.4,43.7,30.08,NNE,22,0.0,3.2,60,0.00,,SCT,0.00,WUHU21623XXSP,2013-01-01 12:55:00,
2013-01-01 15:00:00,57.0,43.8,30.08,NE,45,0.0,8.1,61,0.00,,SCT,0.00,WUHU21623XXSP,2013-01-01 13:00:00,
2013-01-01 15:05:00,56.8,43.6,30.08,NE,45,0.0,8.1,61,0.00,,SCT,0.00,WUHU21623XXSP,2013-01-01 13:05:00,
2013-01-01 15:10:00,56.7,43.9,30.08,ENE,67,0.0,5.2,62,0.00,,SCT,0.00,WUHU21623XXSP,2013-01-01 13:10:00,
2013-01-01 15:15:00,56.3,44.0,30.08,SE,135,0.0,5.2,63,0.00,,SCT,0.00,WUHU21623XXSP,2013-01-01 13:15:00,
2013-01-01 15:20:00,56.1,44.6,30.08,East,90,0.0,3.4,65,0.00,,SCT,0.00,WUHU21623XXSP,2013-01-01 13:20:00,
2013-01-01 15:25:00,56.1,45.4,30.08,East,90,0.0,3.0,67,0.00,,SCT,0.00,WUHU21623XXSP,2013-01-01 13:25:00,
2013-01-01 15:30:00,55.9,45.2,30.08,ESE,112,0.0,2.8,67,0.00,,SCT,0.00,WUHU21623XXSP,2013-01-01 13:30:00,
2013-01-01 15:35:00,55.8,45.1,30.08,ESE,112,0.0,2.8,67,0.00,,SCT,0.00,WUHU21623XXSP,2013-01-01 13:35:00,
2013-01-01 15:40:00,55.9,45.6,30.09,West,270,0.0,1.4,68,0.00,,SCT,0.00,WUHU21623XXSP,2013-01-01 13:40:00,
2013-01-01 15:45:00,55.8,45.9,30.09,WSW,247,0.0,0.0,69,0.00,,SCT,0.00,WUHU21623XXSP,2013-01-01 13:45:00,
2013-01-01 15:50:00,55.8,46.3,30.09,NW,315,0.0,0.0,70,0.00,,SCT,0.00,WUHU21623XXSP,2013-01-01 13:50:00,
2013-01-01 15:55:00,55.8,45.9,30.09,NNW,337,0.0,0.0,69,0.00,,SCT,0.00,WUHU21623XXSP,2013-01-01 13:55:00,
2013-01-01 16:00:00,55.8,45.5,30.09,NW,315,0.0,1.8,68,0.00,,SCT,0.00,WUHU21623XXSP,2013-01-01 14:00:00,
2013-01-01 16:05:00,55.6,45.3,30.09,NNW,337,0.0,1.8,68,0.00,,SCT,0.00,WUHU21623XXSP,2013-01-01 14:05:00,
2013-01-01 16:10:00,55.6,45.3,30.09,North,0,0.0,0.0,68,0.00,,SCT,0.00,WUHU21623XXSP,2013-01-01 14:10:00,
2013-01-01 16:15:00,55.2,45.3,30.09,North,0,0.0,0.0,69,0.00,,SCT,0.00,WUHU21623XXSP,2013-01-01 14:15:00,
2013-01-01 16:20:00,55.4,45.1,30.10,NNW,337,0.0,0.0,68,0.00,,SCT,0.00,WUHU21623XXSP,2013-01-01 14:20:00,
2013-01-01 16:25:00,55.2,45.3,30.09,ENE,67,0.0,0.0,69,0.00,,SCT,0.00,WUHU21623XXSP,2013-01-01 14:25:00,
2013-01-01 16:30:00,55.0,45.1,30.09,East,90,0.0,0.0,69,0.00,,SCT,0.00,WUHU21623XXSP,2013-01-01 14:30:00,
2013-01-01 16:35:00,55.0,45.1,30.10,NE,45,0.0,2.4,69,0.00,,SCT,0.00,WUHU21623XXSP,2013-01-01 14:35:00,
2013-01-01 16:40:00,55.0,44.8,30.10,NNE,22,0.0,3.4,68,0.00,,SCT,0.00,WUHU21623XXSP,2013-01-01 14:40:00,
2013-01-01 16:45:00,55.0,44.8,30.10,NNE,22,0.0,4.9,68,0.00,,SCT,0.00,WUHU21623XXSP,2013-01-01 14:45:00,
2013-01-01 16:50:00,54.9,45.0,30.10,ENE,67,0.0,4.9,69,0.00,,SCT,0.00,WUHU21623XXSP,2013-01-01 14:50:00,
2013-01-01 16:55:00,54.9,45.0,30.10,SSE,157,2.2,4.7,69,0.00,,SCT,0.00,WUHU21623XXSP,2013-01-01 14:55:00,
2013-01-01 17:00:00,55.0,45.1,30.09,NNE,22,0.0,2.4,69,0.00,,SCT,0.00,WUHU21623XXSP,2013-01-01 15:00:00,
2013-01-01 17:05:00,54.9,45.0,30.10,NNE,22,0.0,2.2,69,0.00,,SCT,0.00,WUHU21623XXSP,2013-01-01 15:05:00,
2013-01-01 17:10:00,55.0,45.1,30.10,NE,45,0.0,0.0,69,0.00,,SCT,0.00,WUHU21623XXSP,2013-01-01 15:10:00,
2013-01-01 17:15:00,55.0,45.1,30.09,ENE,67,0.0,1.4,69,0.00,,SCT,0.00,WUHU21623XXSP,2013-01-01 15:15:00,
2013-01-01 17:20:00,54.9,45.0,30.10,ESE,112,0.0,1.4,69,0.00,,SCT,0.00,WUHU21623XXSP,2013-01-01 15:20:00,
2013-01-01 17:25:00,54.7,45.2,30.10,NE,45,0.0,3.0,70,0.00,,SCT,0.00,WUHU21623XXSP,2013-01-01 15:25:00,
2013-01-01 17:30:00,54.5,45.0,30.09,ENE,67,0.0,3.0,70,0.00,,SCT,0.00,WUHU21623XXSP,2013-01-01 15:30:00,
2013-01-01 17:35:00,54.5,45.0,30.09,NE,45,3.7,3.7,70,0.00,,SCT,0.00,WUHU21623XXSP,2013-01-01 15:35:00,
2013-01-01 17:40:00,54.3,45.2,30.10,ENE,67,0.0,4.0,71,0.00,,SCT,0.00,WUHU21623XXSP,2013-01-01 15:40:00,
2013-01-01 17:45:00,54.3,45.2,30.10,NE,45,0.0,4.0,71,0.00,,SCT,0.00,WUHU21623XXSP,2013-01-01 15:45:00,
2013-01-01 17:50:00,54.1,45.4,30.09,East,90,0.0,3.2,72,0.00,,SCT,0.00,WUHU21623XXSP,2013-01-01 15:50:00,
2013-01-01 17:55:00,54.0,45.3,30.10,ESE,112,1.0,3.4,72,0.00,,SCT,0.00,WUHU21623XXSP,2013-01-01 15:55:00,
2013-01-01 18:00:00,54.0,45.3,30.10,ESE,112,0.0,3.4,72,0.00,,SCT,0.00,WUHU21623XXSP,2013-01-01 16:00:00,
2013-01-01 18:05:00,53.8,45.4,30.10,SE,135,0.0,4.0,73,0.00,,SCT,0.00,WUHU21623XXSP,2013-01-01 16:05:00,
2013-01-01 18:10:00,53.6,45.3,30.10,ENE,67,0.0,4.0,73,0.00,,SCT,0.00,WUHU21623XXSP,2013-01-01 16:10:00,
2013-01-01 18:15:00,53.2,44.9,30.10,NE,45,0.0,4.0,73,0.00,,SCT,0.00,WUHU21623XXSP,2013-01-01 16:15:00,
2013-01-01 18:20:00,53.1,44.8,30.10,NE,45,0.0,1.8,73,0.00,,SCT,0.00,WUHU21623XXSP,2013-01-01 16:20:00,
2013-01-01 18:25:00,53.1,44.8,30.10,NNE,22,0.0,3.4,73,0.00,,SCT,0.00,WUHU21623XXSP,2013-01-01 16:25:00,
2013-01-01 18:30:00,53.1,45.1,30.10,NNE,22,0.0,3.4,74,0.00,,SCT,0.00,WUHU21623XXSP,2013-01-01 16:30:00,
2013-01-01 18:35:00,53.1,45.1,30.10,NNE,22,0.0,1.2,74,0.00,,SCT,0.00,WUHU21623XXSP,2013-01-01 16:35:00,
2013-01-01 18:40:00,53.1,45.1,30.11,NNW,337,0.0,0.0,74,0.00,,SCT,0.00,WUHU21623XXSP,2013-01-01 16:40:00,
2013-01-01 18:45:00,52.7,44.7,30.11,NNW,337,0.0,0.0,74,0.00,,SCT,0.00,WUHU21623XXSP,2013-01-01 16:45:00,
2013-01-01 18:50:00,52.7,45.1,30.11,NW,315,0.0,0.0,75,0.00,,SCT,0.00,WUHU21623XXSP,2013-01-01 16:50:00,
2013-01-01 18:55:00,52.9,45.3,30.11,NW,315,0.0,0.0,75,0.00,,SCT,0.00,WUHU21623XXSP,2013-01-01 16:55:00,
2013-01-01 19:00:00,52.5,45.2,30.11,NW,315,0.0,2.4,76,0.00,,SCT,0.00,WUHU21623XXSP,2013-01-01 17:00:00,
2013-01-01 19:05:00,52.5,45.2,30.11,NNW,337,0.0,2.4,76,0.00,,SCT,0.00,WUHU21623XXSP,2013-01-01 17:05:00,
2013-01-01 19:10:00,52.2,45.3,30.12,NNW,337,0.0,1.4,77,0.00,,SCT,0.00,WUHU21623XXSP,2013-01-01 17:10:00,
2013-01-01 19:15:00,52.0,45.1,30.12,North,0,0.0,1.4,77,0.00,,SCT,0.00,WUHU21623XXSP,2013-01-01 17:15:00,
2013-01-01 19:20:00,52.2,45.6,30.12,NNW,337,0.0,3.4,78,0.00,,SCT,0.00,WUHU21623XXSP,2013-01-01 17:20:00,
2013-01-01 19:25:00,52.2,45.6,30.12,NW,315,1.0,3.7,78,0.00,,SCT,0.00,WUHU21623XXSP,2013-01-01 17:25:00,
2013-01-01 19:30:00,52.2,45.9,30.12,NW,315,0.0,3.7,79,0.00,,SCT,0.00,WUHU21623XXSP,2013-01-01 17:30:00,
2013-01-01 19:35:00,52.2,45.9,30.12,North,0,0.0,3.2,79,0.00,,SCT,0.00,WUHU21623XXSP,2013-01-01 17:35:00,
2013-01-01 19:40:00,52.2,45.9,30.12,NNW,337,0.0,4.0,79,0.00,,SCT,0.00,WUHU21623XXSP,2013-01-01 17:40:00,
2013-01-01 19:45:00,52.2,45.9,30.12,NNW,337,0.0,4.0,79,0.00,,SCT,0.00,WUHU21623XXSP,2013-01-01 17:45:00,
2013-01-01 19:50:00,52.2,45.9,30.12,NNW,337,1.0,4.2,79,0.00,,SCT,0.00,WUHU21623XXSP,2013-01-01 17:50:00,
2013-01-01 19:55:00,52.2,45.9,30.12,NNW,337,0.0,5.9,79,0.00,,SCT,0.00,WUHU21623XXSP,2013-01-01 17:55:00,
2013-01-01 20:00:00,52.2,45.9,30.12,North,0,0.0,5.9,79,0.00,,SCT,0.00,WUHU21623XXSP,2013-01-01 18:00:00,
2013-01-01 20:05:00,52.0,45.7,30.12,NNW,337,0.0,4.2,79,0.00,,SCT,0.00,WUHU21623XXSP,2013-01-01 18:05:00,
2013-01-01 20:10:00,52.0,45.7,30.13,NNW,337,0.0,4.2,79,0.00,,SCT,0.00,WUHU21623XXSP,2013-01-01 18:10:00,
2013-01-01 20:15:00,51.8,45.5,30.13,NNW,337,1.4,3.2,79,0.00,,SCT,0.00,WUHU21623XXSP,2013-01-01 18:15:00,
2013-01-01 20:20:00,51.8,45.5,30.13,NE,45,0.0,3.2,79,0.00,,SCT,0.00,WUHU21623XXSP,2013-01-01 18:20:00,
2013-01-01 20:25:00,51.4,45.2,30.14,North,0,0.0,3.2,79,0.00,,SCT,0.00,WUHU21623XXSP,2013-01-01 18:25:00,
2013-01-01 20:30:00,51.3,45.1,30.13,North,0,0.8,2.0,79,0.00,,SCT,0.00,WUHU21623XXSP,2013-01-01 18:30:00,
2013-01-01 20:35:00,51.1,44.9,30.13,NNE,22,4.0,4.0,79,0.00,,SCT,0.00,WUHU21623XXSP,2013-01-01 18:35:00,
2013-01-01 20:40:00,50.9,45.0,30.13,NNE,22,0.0,5.2,80,0.00,,SCT,0.00,WUHU21623XXSP,2013-01-01 18:40:00,
2013-01-01 20:45:00,50.7,44.8,30.14,North,0,0.0,5.2,80,0.00,,SCT,0.00,WUHU21623XXSP,2013-01-01 18:45:00,
2013-01-01 20:50:00,50.7,45.1,30.14,NNW,337,0.0,5.2,81,0.00,,SCT,0.00,WUHU21623XXSP,2013-01-01 18:50:00,
2013-01-01 20:55:00,50.7,45.4,30.14,NNW,337,0.0,3.7,82,0.00,,SCT,0.00,WUHU21623XXSP,2013-01-01 18:55:00,
2013-01-01 21:00:00,50.7,45.4,30.14,NNW,337,0.0,3.7,82,0.00,,SCT,0.00,WUHU21623XXSP,2013-01-01 19:00:00,
2013-01-01 21:05:00,50.9,45.9,30.14,North,0,0.0,3.7,83,0.00,,SCT,0.00,WUHU21623XXSP,2013-01-01 19:05:00,
2013-01-01 21:10:00,50.9,45.6,30.14,NNW,337,2.8,5.9,82,0.00,,SCT,0.00,WUHU21623XXSP,2013-01-01 19:10:00,
2013-01-01 21:15:00,50.9,45.6,30.13,North,0,4.0,5.9,82,0.00,,SCT,0.00,WUHU21623XXSP,2013-01-01 19:15:00,
2013-01-01 21:20:00,50.7,45.7,30.14,NNE,22,0.0,5.6,83,0.00,,SCT,0.00,WUHU21623XXSP,2013-01-01 19:20:00,
2013-01-01 21:25:00,50.7,45.7,30.14,NNW,337,3.2,5.6,83,0.00,,SCT,0.00,WUHU21623XXSP,2013-01-01 19:25:00,
2013-01-01 21:30:00,50.7,45.7,30.14,NNW,337,2.2,4.4,83,0.00,,SCT,0.00,WUHU21623XXSP,2013-01-01 19:30:00,
2013-01-01 21:35:00,50.7,45.7,30.14,NNE,22,0.0,4.4,83,0.00,,SCT,0.00,WUHU21623XXSP,2013-01-01 19:35:00,
2013-01-01 21:40:00,50.5,45.5,30.14,North,0,0.0,2.8,83,0.00,,SCT,0.00,WUHU21623XXSP,2013-01-01 19:40:00,
2013-01-01 21:45:00,50.4,44.2,30.14,NNE,22,0.0,2.8,79,0.00,,SCT,0.00,WUHU21623XXSP,2013-01-01 19:45:00,
2013-01-01 21:50:00,50.4,44.2,30.14,NNE,22,0.0,2.8,79,0.00,,SCT,0.00,WUHU21623XXSP,2013-01-01 19:50:00,
2013-01-01 21:55:00,50.2,44.0,30.14,North,0,0.0,1.4,79,0.00,,SCT,0.00,WUHU21623XXSP,2013-01-01 19:55:00,
2013-01-01 22:00:00,50.0,43.8,30.14,NNE,22,0.0,1.2,79,0.00,,SCT,0.00,WUHU21623XXSP,2013-01-01 20:00:00,
2013-01-01 22:05:00,49.6,43.4,30.14,NNE,22,0.0,0.0,79,0.00,,SCT,0.00,WUHU21623XXSP,2013-01-01 20:05:00,
2013-01-01 22:10:00,49.5,43.3,30.14,North,0,0.0,0.0,79,0.00,,SCT,0.00,WUHU21623XXSP,2013-01-01 20:10:00,
2013-01-01 22:15:00,49.1,42.9,30.14,NNW,337,0.0,0.0,79,0.00,,SCT,0.00,WUHU21623XXSP,2013-01-01 20:15:00,
2013-01-01 22:20:00,49.3,43.4,30.15,North,0,0.0,0.0,80,0.00,,SCT,0.00,WUHU21623XXSP,2013-01-01 20:20:00,
2013-01-01 22:25:00,49.6,44.0,30.14,North,0,0.0,0.0,81,0.00,,SCT,0.00,WUHU21623XXSP,2013-01-01 20:25:00,
2013-01-01 22:30:00,49.5,44.2,30.14,North,0,0.0,0.0,82,0.00,,SCT,0.00,WUHU21623XXSP,2013-01-01 20:30:00,
2013-01-01 22:35:00,49.5,44.2,30.14,North,0,0.0,0.0,82,0.00,,SCT,0.00,WUHU21623XXSP,2013-01-01 20:35:00,
2013-01-01 22:40:00,49.3,44.4,30.14,North,0,0.0,0.0,83,0.00,,SCT,0.00,WUHU21623XXSP,2013-01-01 20:40:00,
2013-01-01 22:45:00,49.1,44.2,30.15,North,0,0.0,0.0,83,0.00,,SCT,0.00,WUHU21623XXSP,2013-01-01 20:45:00,
2013-01-01 22:50:00,48.6,44.0,30.15,North,0,0.0,0.0,84,0.00,,SCT,0.00,WUHU21623XXSP,2013-01-01 20:50:00,
2013-01-01 22:55:00,48.6,44.3,30.14,NNE,22,0.0,0.0,85,0.00,,SCT,0.00,WUHU21623XXSP,2013-01-01 20:55:00,
2013-01-01 23:00:00,48.4,44.4,30.14,NNE,22,0.0,0.0,86,0.00,,SCT,0.00,WUHU21623XXSP,2013-01-01 21:00:00,
2013-01-01 23:05:00,48.4,44.4,30.14,NNE,22,0.0,0.0,86,0.00,,SCT,0.00,WUHU21623XXSP,2013-01-01 21:05:00,
2013-01-01 23:10:00,48.4,44.4,30.14,North,0,0.0,2.2,86,0.00,,SCT,0.00,WUHU21623XXSP,2013-01-01 21:10:00,
2013-01-01 23:15:00,48.4,44.1,30.14,North,0,0.0,2.2,85,0.00,,SCT,0.00,WUHU21623XXSP,2013-01-01 21:15:00,
2013-01-01 23:20:00,48.2,43.9,30.14,North,0,0.0,0.0,85,0.00,,SCT,0.00,WUHU21623XXSP,2013-01-01 21:20:00,
2013-01-01 23:25:00,48.0,43.7,30.14,North,0,0.0,0.0,85,0.00,,SCT,0.00,WUHU21623XXSP,2013-01-01 21:25:00,
2013-01-01 23:30:00,47.7,43.4,30.15,ENE,67,0.0,0.0,85,0.00,,SCT,0.00,WUHU21623XXSP,2013-01-01 21:30:00,